QPF
0.02 0.02 0.07 0.09 0.10 0.12 0.13 0.13 0.14 0.13 0.13 0.12 0.12 0.11 0.11 0.09 0.07 0.07 0.06 0.06 0.05 0.05 0.05 0.05 0.05 0.04 0.04 0.04 0.03 0.03 0.03 0.02 0.03 0.03 0.03 0.04 0.03 0.03 0.03 0.07 0.08 0.07 0.06
0.03 0.02 0.07 0.10 0.11 0.11 0.14 0.15 0.18 0.17 0.16 0.13 0.10 0.09 0.09 0.08 0.07 0.05 0.07 0.07 0.08 0.07 0.06 0.05 0.05 0.06 0.05 0.03 0.03 0.03 0.03 0.03 0.04 0.03 0.04 0.04 0.04 0.05 0.06 0.07 0.08 0.07 0.05
0.03 0.03 0.07 0.11 0.13 0.11 0.13 0.16 0.20 0.20 0.16 0.13 0.12 0.10 0.07 0.06 0.06 0.06 0.06 0.08 0.09 0.07 0.05 0.04 0.04 0.05 0.03 0.02 0.02 0.02 0.02 0.03 0.04 0.03 0.04 0.06 0.05 0.05 0.06 0.06 0.06 0.06 0.06
0.04 0.03 0.06 0.10 0.14 0.13 0.14 0.14 0.17 0.17 0.13 0.10 0.09 0.08 0.08 0.07 0.07 0.09 0.07 0.06 0.05 0.04 0.03 0.03 0.02 0.02 0.02 0.01 0.01 0.01 0.02 0.03 0.02 0.01 0.03 0.03 0.04 0.04 0.04 0.05 0.06 0.08 0.06
0.07 0.07 0.08 0.12 0.12 0.11 0.11 0.12 0.14 0.14 0.11 0.08 0.07 0.06 0.07 0.07 0.07 0.09 0.06 0.05 0.03 0.02 0.02 0.02 0.02 0.01 0.02 0.02 0.02 0.02 0.02 0.02 0.01 0.01 0.01 0.02 0.04 0.04 0.05 0.06 0.07 0.06 0.07
0.06 0.08 0.10 0.12 0.13 0.13 0.11 0.11 0.11 0.10 0.10 0.08 0.07 0.07 0.07 0.06 0.07 0.09 0.05 0.04 0.03 0.03 0.02 0.02 0.01 0.01 0.01 0.01 0.02 0.04 0.03 0.01 0.01 0.01 0.02 0.03 0.05 0.05 0.07 0.06 0.04 0.04 0.05
0.05 0.08 0.13 0.17 0.15 0.14 0.11 0.08 0.09 0.09 0.07 0.06 0.07 0.09 0.08 0.07 0.08 0.07 0.05 0.05 0.04 0.03 0.02 0.02 0.01 0.01 0.01 0.02 0.03 0.04 0.04 0.01 0.01 0.01 0.03 0.05 0.06 0.04 0.05 0.03 0.03 0.03 0.03
0.04 0.06 0.11 0.12 0.09 0.08 0.07 0.06 0.07 0.08 0.07 0.06 0.07 0.07 0.07 0.10 0.06 0.04 0.04 0.04 0.03 0.02 0.02 0.02 0.02 0.01 0.01 0.02 0.03 0.04 0.04 0.01 0.01 0.01 0.02 0.05 0.04 0.03 0.03 0.03 0.03 0.03 0.03
0.03 0.04 0.05 0.06 0.07 0.07 0.07 0.06 0.07 0.07 0.06 0.06 0.05 0.04 0.04 0.05 0.03 0.02 0.02 0.02 0.03 0.03 0.03 0.02 0.01 0.01 0.01 0.03 0.03 0.04 0.05 0.01 0.01 0.01 0.01 0.05 0.05 0.03 0.03 0.02 0.02 0.02 0.03
0.03 0.04 0.05 0.05 0.05 0.06 0.06 0.06 0.08 0.09 0.07 0.05 0.04 0.04 0.04 0.02 0.02 0.01 0.01 0.02 0.03 0.03 0.02 0.03 0.02 0.01 0.01 0.02 0.03 0.05 0.04 0.02 0.02 0.01 0.02 0.04 0.06 0.03 0.02 0.02 0.02 0.02 0.02
0.02 0.03 0.05 0.04 0.04 0.05 0.07 0.06 0.08 0.09 0.07 0.05 0.03 0.02 0.02 0.02 0.02 0.02 0.01 0.03 0.04 0.02 0.03 0.03 0.03 0.02 0.01 0.02 0.03 0.05 0.04 0.02 0.02 0.03 0.03 0.05 0.06 0.05 0.03 0.04 0.03 0.03 0.03
0.02 0.04 0.05 0.04 0.03 0.03 0.06 0.07 0.09 0.09 0.06 0.03 0.02 0.01 0.01 0.01 0.01 0.01 0.01 0.02 0.03 0.02 0.01 0.02 0.02 0.01 0.01 0.02 0.01 0.03 0.04 0.03 0.03 0.03 0.04 0.06 0.08 0.08 0.06 0.06 0.04 0.03 0.03
0.02 0.03 0.03 0.03 0.02 0.03 0.04 0.05 0.06 0.06 0.05 0.03 0.01 0.01 0.01 0.00 0.00 0.00 0.00 0.01 0.01 0.00 0.00 0.01 0.01 0.01 0.02 0.02 0.02 0.03 0.02 0.03 0.05 0.05 0.06 0.10 0.12 0.09 0.08 0.08 0.05 0.05 0.04
0.02 0.03 0.02 0.03 0.03 0.04 0.04 0.03 0.04 0.03 0.03 0.02 0.01 0.00 0.00 0.00 0.00 0.00 0.00 0.00 0.00 0.00 0.01 0.01 0.01 0.02 0.02 0.03 0.03 0.03 0.02 0.03 0.06 0.08 0.09 0.12 0.12 0.10 0.08 0.07 0.08 0.09 0.06
0.02 0.02 0.02 0.02 0.02 0.04 0.03 0.02 0.01 0.01 0.01 0.01 0.00 0.00 0.00 0.00 0.00 0.00 0.00 0.00 0.00 0.00 0.00 0.01 0.02 0.02 0.02 0.03 0.03 0.03 0.02 0.02 0.05 0.08 0.07 0.08 0.07 0.07 0.08 0.09 0.10 0.08 0.06
0.02 0.02 0.03 0.02 0.02 0.02 0.02 0.01 0.00 0.00 0.00 0.00 0.00 0.00 0.00 0.00 0.00 0.00 0.00 0.00 0.00 0.00 0.00 0.01 0.01 0.01 0.01 0.02 0.02 0.02 0.02 0.03 0.05 0.08 0.07 0.07 0.06 0.04 0.06 0.10 0.11 0.08 0.06
0.02 0.01 0.01 0.01 0.01 0.01 0.01 0.01 0.00 0.00 0.00 0.00 0.00 0.00 0.00 0.00 0.00 0.00 0.00 0.00 0.00 0.00 0.01 0.01 0.01 0.01 0.01 0.01 0.03 0.03 0.03 0.03 0.03 0.06 0.06 0.05 0.05 0.05 0.05 0.05 0.06 0.07 0.08
0.01 0.01 0.01 0.01 0.01 0.01 0.01 0.00 0.00 0.00 0.00 0.00 0.00 0.00 0.00 0.00 0.00 0.00 0.00 0.00 0.00 0.00 0.01 0.02 0.02 0.01 0.01 0.01 0.03 0.03 0.02 0.02 0.02 0.04 0.04 0.04 0.05 0.05 0.04 0.03 0.03 0.05 0.07
0.01 0.01 0.00 0.01 0.01 0.01 0.00 0.00 0.00 0.00 0.00 0.00 0.00 0.00 0.00 0.00 0.00 0.00 0.00 0.00 0.00 0.01 0.01 0.01 0.02 0.01 0.01 0.03 0.03 0.03 0.02 0.02 0.03 0.03 0.04 0.05 0.06 0.05 0.03 0.04 0.03 0.03 0.05
0.01 0.01 0.01 0.01 0.01 0.01 0.00 0.00 0.00 0.00 0.00 0.00 0.00 0.00 0.00 0.00 0.00 0.00 0.00 0.00 0.00 0.01 0.01 0.01 0.02 0.02 0.03 0.05 0.03 0.03 0.03 0.04 0.04 0.04 0.03 0.04 0.05 0.04 0.02 0.01 0.02 0.03 0.05
0.02 0.02 0.02 0.01 0.01 0.01 0.00 0.00 0.00 0.00 0.00 0.00 0.00 0.00 0.00 0.00 0.00 0.01 0.01 0.01 0.01 0.01 0.01 0.02 0.02 0.02 0.03 0.04 0.06 0.04 0.04 0.04 0.04 0.03 0.03 0.03 0.04 0.03 0.01 0.01 0.01 0.02 0.03
0.03 0.02 0.02 0.02 0.01 0.00 0.00 0.00 0.00 0.00 0.00 0.00 0.00 0.00 0.00 0.00 0.00 0.00 0.01 0.01 0.02 0.02 0.02 0.04 0.03 0.04 0.03 0.04 0.05 0.05 0.05 0.05 0.05 0.03 0.02 0.02 0.03 0.02 0.01 0.01 0.01 0.02 0.03
0.03 0.03 0.02 0.02 0.01 0.00 0.00 0.00 0.00 0.00 0.00 0.00 0.00 0.00 0.00 0.00 0.00 0.01 0.01 0.01 0.01 0.02 0.05 0.05 0.03 0.05 0.07 0.06 0.06 0.04 0.05 0.05 0.05 0.03 0.01 0.02 0.02 0.01 0.01 0.01 0.01 0.02 0.04
0.04 0.04 0.03 0.01 0.01 0.00 0.00 0.00 0.00 0.00 0.00 0.00 0.00 0.00 0.00 0.00 0.00 0.00 0.00 0.01 0.01 0.01 0.03 0.03 0.02 0.03 0.07 0.10 0.07 0.03 0.02 0.02 0.03 0.03 0.03 0.02 0.02 0.02 0.01 0.02 0.02 0.03 0.04
0.03 0.04 0.03 0.02 0.01 0.00 0.00 0.00 0.00 0.00 0.00 0.00 0.00 0.00 0.00 0.00 0.00 0.00 0.00 0.00 0.01 0.01 0.02 0.02 0.02 0.02 0.03 0.06 0.06 0.02 0.01 0.01 0.01 0.02 0.03 0.03 0.02 0.02 0.02 0.02 0.02 0.01 0.02
0.02 0.03 0.02 0.02 0.01 0.00 0.00 0.00 0.00 0.00 0.00 0.00 0.00 0.00 0.01 0.00 0.00 0.00 0.00 0.00 0.02 0.02 0.02 0.02 0.02 0.02 0.01 0.02 0.03 0.02 0.02 0.02 0.02 0.02 0.02 0.02 0.02 0.02 0.02 0.02 0.01 0.02 0.02
MSLP
1014.28 1014.02 1013.86 1013.83 1013.90 1014.02 1014.13 1014.19 1014.17 1014.09 1013.96 1013.84 1013.77 1013.78 1013.88 1014.06 1014.28 1014.51 1014.72 1014.87 1014.96 1015.00 1015.02 1015.02 1015.04 1015.06 1015.09 1015.12 1015.13 1015.11 1015.08 1015.03 1015.00 1015.00 1015.03 1015.09 1015.16 1015.22 1015.25 1015.23 1015.14 1014.99 1014.79
1014.64 1014.34 1014.15 1014.09 1014.15 1014.27 1014.38 1014.44 1014.42 1014.32 1014.18 1014.04 1013.95 1013.95 1014.04 1014.22 1014.44 1014.67 1014.88 1015.03 1015.12 1015.17 1015.20 1015.22 1015.25 1015.29 1015.33 1015.35 1015.34 1015.30 1015.23 1015.15 1015.08 1015.05 1015.07 1015.13 1015.22 1015.30 1015.34 1015.33 1015.24 1015.09 1014.88
1014.92 1014.59 1014.39 1014.34 1014.39 1014.52 1014.64 1014.72 1014.70 1014.61 1014.47 1014.32 1014.23 1014.21 1014.29 1014.45 1014.66 1014.86 1015.04 1015.17 1015.26 1015.31 1015.34 1015.38 1015.44 1015.49 1015.54 1015.56 1015.54 1015.46 1015.35 1015.22 1015.12 1015.06 1015.06 1015.11 1015.21 1015.30 1015.37 1015.38 1015.31 1015.17 1014.97
1015.11 1014.79 1014.60 1014.55 1014.63 1014.77 1014.92 1015.01 1015.02 1014.95 1014.82 1014.68 1014.59 1014.57 1014.64 1014.77 1014.94 1015.11 1015.25 1015.35 1015.41 1015.45 1015.49 1015.54 1015.61 1015.69 1015.75 1015.77 1015.73 1015.62 1015.47 1015.30 1015.15 1015.06 1015.03 1015.08 1015.17 1015.28 1015.37 1015.40 1015.36 1015.24 1015.06
1015.22 1014.93 1014.77 1014.76 1014.86 1015.04 1015.21 1015.32 1015.35 1015.30 1015.19 1015.07 1015.00 1014.98 1015.04 1015.15 1015.29 1015.42 1015.52 1015.58 1015.61 1015.63 1015.66 1015.72 1015.81 1015.90 1015.97 1015.98 1015.93 1015.80 1015.61 1015.41 1015.22 1015.09 1015.05 1015.07 1015.16 1015.28 1015.38 1015.43 1015.41 1015.32 1015.17
1015.30 1015.05 1014.93 1014.96 1015.10 1015.30 1015.49 1015.62 1015.67 1015.64 1015.55 1015.46 1015.40 1015.40 1015.46 1015.56 1015.68 1015.77 1015.83 1015.85 1015.85 1015.85 1015.87 1015.92 1016.01 1016.10 1016.17 1016.18 1016.12 1015.97 1015.77 1015.54 1015.33 1015.18 1015.11 1015.13 1015.20 1015.31 1015.41 1015.47 1015.47 1015.40 1015.26
1015.36 1015.16 1015.09 1015.16 1015.34 1015.56 1015.76 1015.90 1015.95 1015.92 1015.85 1015.78 1015.74 1015.76 1015.83 1015.93 1016.04 1016.11 1016.14 1016.13 1016.09 1016.06 1016.06 1016.10 1016.17 1016.26 1016.32 1016.33 1016.26 1016.11 1015.90 1015.67 1015.46 1015.30 1015.23 1015.23 1015.30 1015.40 1015.49 1015.54 1015.53 1015.46 1015.33
1015.43 1015.28 1015.26 1015.37 1015.57 1015.79 1015.99 1016.12 1016.16 1016.13 1016.07 1016.01 1015.99 1016.03 1016.12 1016.23 1016.33 1016.39 1016.40 1016.36 1016.29 1016.23 1016.20 1016.21 1016.26 1016.32 1016.36 1016.36 1016.29 1016.14 1015.95 1015.74 1015.55 1015.42 1015.36 1015.37 1015.43 1015.52 1015.59 1015.62 1015.58 1015.49 1015.33
1015.51 1015.40 1015.42 1015.56 1015.77 1016.00 1016.18 1016.29 1016.30 1016.26 1016.19 1016.14 1016.13 1016.18 1016.28 1016.40 1016.50 1016.55 1016.55 1016.49 1016.40 1016.30 1016.23 1016.21 1016.22 1016.24 1016.26 1016.24 1016.17 1016.04 1015.88 1015.71 1015.57 1015.48 1015.46 1015.49 1015.57 1015.65 1015.70 1015.69 1015.62 1015.49 1015.29
1015.59 1015.51 1015.56 1015.73 1015.95 1016.16 1016.32 1016.40 1016.39 1016.32 1016.23 1016.17 1016.16 1016.22 1016.32 1016.44 1016.54 1016.59 1016.58 1016.50 1016.38 1016.26 1016.16 1016.08 1016.05 1016.03 1016.02 1015.98 1015.91 1015.80 1015.68 1015.57 1015.49 1015.47 1015.50 1015.58 1015.68 1015.76 1015.79 1015.76 1015.65 1015.47 1015.23
1015.66 1015.61 1015.68 1015.86 1016.08 1016.28 1016.41 1016.46 1016.43 1016.33 1016.23 1016.15 1016.13 1016.17 1016.27 1016.38 1016.47 1016.52 1016.49 1016.41 1016.27 1016.13 1015.99 1015.88 1015.80 1015.74 1015.69 1015.63 1015.55 1015.47 1015.39 1015.34 1015.33 1015.38 1015.48 1015.61 1015.75 1015.84 1015.88 1015.83 1015.68 1015.46 1015.18
1015.70 1015.67 1015.77 1015.96 1016.17 1016.36 1016.48 1016.51 1016.45 1016.33 1016.20 1016.11 1016.07 1016.09 1016.16 1016.26 1016.34 1016.37 1016.34 1016.25 1016.12 1015.96 1015.80 1015.66 1015.55 1015.45 1015.37 1015.29 1015.21 1015.14 1015.09 1015.09 1015.14 1015.26 1015.42 1015.61 1015.79 1015.91 1015.95 1015.90 1015.73 1015.49 1015.18
1015.72 1015.72 1015.83 1016.02 1016.24 1016.43 1016.53 1016.55 1016.48 1016.34 1016.20 1016.08 1016.02 1016.01 1016.05 1016.12 1016.18 1016.21 1016.17 1016.09 1015.97 1015.82 1015.66 1015.52 1015.38 1015.27 1015.16 1015.05 1014.97 1014.90 1014.88 1014.91 1015.00 1015.17 1015.38 1015.61 1015.82 1015.97 1016.03 1015.98 1015.82 1015.57 1015.25
1015.73 1015.75 1015.88 1016.08 1016.30 1016.49 1016.60 1016.61 1016.53 1016.39 1016.24 1016.10 1016.01 1015.97 1015.98 1016.02 1016.06 1016.07 1016.05 1015.99 1015.89 1015.77 1015.64 1015.51 1015.38 1015.26 1015.14 1015.03 1014.93 1014.86 1014.84 1014.88 1014.99 1015.17 1015.40 1015.65 1015.88 1016.05 1016.12 1016.09 1015.95 1015.70 1015.39
1015.75 1015.79 1015.94 1016.15 1016.38 1016.57 1016.68 1016.70 1016.63 1016.49 1016.33 1016.18 1016.07 1016.00 1015.97 1015.98 1016.00 1016.01 1016.00 1015.97 1015.91 1015.84 1015.76 1015.67 1015.57 1015.47 1015.36 1015.25 1015.14 1015.06 1015.03 1015.05 1015.15 1015.31 1015.52 1015.76 1015.98 1016.15 1016.24 1016.22 1016.10 1015.88 1015.60
1015.80 1015.87 1016.04 1016.26 1016.49 1016.68 1016.80 1016.83 1016.77 1016.65 1016.49 1016.33 1016.20 1016.10 1016.05 1016.02 1016.02 1016.03 1016.04 1016.04 1016.04 1016.03 1016.01 1015.98 1015.93 1015.87 1015.79 1015.69 1015.59 1015.50 1015.44 1015.44 1015.49 1015.61 1015.78 1015.97 1016.15 1016.30 1016.38 1016.38 1016.27 1016.08 1015.83
1015.91 1016.01 1016.19 1016.41 1016.64 1016.84 1016.96 1017.01 1016.97 1016.86 1016.71 1016.55 1016.40 1016.28 1016.19 1016.14 1016.12 1016.13 1016.15 1016.19 1016.24 1016.29 1016.33 1016.37 1016.39 1016.38 1016.34 1016.27 1016.19 1016.10 1016.02 1015.98 1015.98 1016.04 1016.14 1016.27 1016.40 1016.50 1016.56 1016.54 1016.45 1016.29 1016.06
1016.07 1016.20 1016.39 1016.62 1016.85 1017.04 1017.17 1017.22 1017.20 1017.11 1016.98 1016.82 1016.66 1016.52 1016.40 1016.32 1016.28 1016.28 1016.31 1016.37 1016.46 1016.56 1016.67 1016.77 1016.85 1016.90 1016.91 1016.89 1016.83 1016.75 1016.67 1016.60 1016.57 1016.56 1016.59 1016.64 1016.70 1016.75 1016.77 1016.74 1016.65 1016.50 1016.30
1016.28 1016.43 1016.64 1016.86 1017.08 1017.27 1017.40 1017.47 1017.47 1017.40 1017.28 1017.13 1016.97 1016.81 1016.67 1016.56 1016.49 1016.47 1016.49 1016.56 1016.67 1016.80 1016.95 1017.10 1017.23 1017.34 1017.40 1017.42 1017.41 1017.36 1017.30 1017.23 1017.16 1017.11 1017.08 1017.07 1017.07 1017.06 1017.04 1016.98 1016.88 1016.73 1016.54
1016.50 1016.69 1016.89 1017.11 1017.32 1017.50 1017.64 1017.73 1017.75 1017.71 1017.61 1017.47 1017.31 1017.14 1016.98 1016.84 1016.74 1016.69 1016.69 1016.75 1016.85 1016.99 1017.15 1017.32 1017.49 1017.63 1017.75 1017.82 1017.85 1017.85 1017.82 1017.77 1017.71 1017.65 1017.59 1017.53 1017.48 1017.43 1017.37 1017.29 1017.17 1017.02 1016.83
1016.72 1016.92 1017.13 1017.34 1017.54 1017.72 1017.87 1017.97 1018.02 1018.02 1017.95 1017.83 1017.68 1017.50 1017.32 1017.16 1017.02 1016.93 1016.90 1016.92 1017.00 1017.12 1017.27 1017.45 1017.62 1017.79 1017.93 1018.05 1018.14 1018.19 1018.21 1018.20 1018.17 1018.13 1018.07 1018.00 1017.93 1017.86 1017.77 1017.67 1017.55 1017.39 1017.19
1016.90 1017.11 1017.31 1017.52 1017.71 1017.89 1018.06 1018.19 1018.27 1018.30 1018.28 1018.19 1018.05 1017.87 1017.68 1017.49 1017.32 1017.20 1017.12 1017.11 1017.14 1017.23 1017.36 1017.51 1017.67 1017.84 1018.00 1018.14 1018.27 1018.38 1018.46 1018.51 1018.53 1018.53 1018.50 1018.46 1018.40 1018.32 1018.24 1018.14 1018.01 1017.85 1017.65
1017.01 1017.23 1017.43 1017.62 1017.81 1018.00 1018.19 1018.35 1018.48 1018.56 1018.57 1018.52 1018.40 1018.24 1018.04 1017.83 1017.64 1017.48 1017.37 1017.31 1017.31 1017.35 1017.44 1017.55 1017.69 1017.84 1017.99 1018.15 1018.30 1018.45 1018.58 1018.70 1018.78 1018.84 1018.87 1018.86 1018.84 1018.79 1018.72 1018.63 1018.52 1018.37 1018.17
1017.06 1017.27 1017.46 1017.65 1017.85 1018.05 1018.26 1018.46 1018.63 1018.76 1018.82 1018.81 1018.72 1018.56 1018.37 1018.15 1017.94 1017.76 1017.62 1017.54 1017.51 1017.52 1017.56 1017.64 1017.74 1017.85 1017.99 1018.14 1018.30 1018.47 1018.64 1018.80 1018.94 1019.06 1019.14 1019.19 1019.21 1019.20 1019.17 1019.11 1019.02 1018.88 1018.70
1017.05 1017.26 1017.44 1017.62 1017.82 1018.04 1018.27 1018.52 1018.74 1018.91 1019.02 1019.04 1018.98 1018.84 1018.65 1018.44 1018.22 1018.03 1017.89 1017.79 1017.74 1017.73 1017.74 1017.79 1017.85 1017.93 1018.03 1018.16 1018.30 1018.47 1018.66 1018.84 1019.02 1019.18 1019.32 1019.42 1019.48 1019.52 1019.52 1019.49 1019.43 1019.33 1019.18
1017.01 1017.21 1017.39 1017.57 1017.77 1018.00 1018.27 1018.54 1018.81 1019.02 1019.17 1019.22 1019.19 1019.07 1018.89 1018.68 1018.47 1018.28 1018.14 1018.04 1017.99 1017.97 1017.98 1018.00 1018.04 1018.08 1018.14 1018.23 1018.35 1018.49 1018.67 1018.86 1019.05 1019.24 1019.40 1019.53 1019.63 1019.70 1019.73 1019.74 1019.71 1019.65 1019.54
Thickness
5777 5778 5772 5772 5771 5770 5770 5769 5769 5768 5768 5767 5767 5766 5765 5765 5764 5763 5763 5762 5762 5762 5762 5762 5762 5762 5763 5763 5763 5764 5765 5765 5766 5767 5768 5769 5769 5770 5771 5771 5772 5774 5772
5777 5776 5771 5770 5769 5768 5768 5767 5766 5766 5765 5765 5764 5763 5763 5762 5761 5760 5760 5760 5759 5759 5759 5759 5759 5759 5759 5760 5761 5761 5762 5763 5763 5764 5766 5767 5767 5768 5768 5768 5769 5770 5770
5776 5774 5771 5768 5767 5766 5765 5764 5763 5763 5762 5762 5761 5760 5760 5759 5758 5757 5757 5757 5756 5756 5756 5756 5756 5756 5756 5757 5757 5758 5759 5760 5760 5762 5764 5767 5767 5765 5766 5766 5766 5766 5767
5773 5771 5769 5765 5765 5764 5763 5762 5761 5760 5759 5759 5758 5758 5757 5756 5755 5754 5754 5754 5753 5753 5753 5752 5752 5752 5753 5754 5754 5755 5755 5756 5757 5760 5764 5766 5766 5763 5763 5763 5764 5764 5764
5769 5768 5765 5762 5761 5761 5760 5759 5758 5757 5757 5756 5755 5754 5754 5753 5752 5751 5751 5750 5750 5750 5749 5749 5749 5749 5750 5750 5751 5751 5752 5753 5755 5758 5760 5760 5761 5759 5760 5760 5761 5761 5761
5766 5765 5761 5759 5758 5757 5757 5756 5755 5755 5754 5753 5752 5751 5750 5750 5749 5748 5748 5747 5747 5746 5746 5745 5746 5746 5746 5747 5747 5748 5748 5750 5753 5755 5756 5757 5757 5755 5756 5757 5757 5758 5759
5763 5761 5758 5755 5754 5754 5754 5753 5752 5751 5751 5750 5749 5748 5747 5746 5745 5745 5744 5744 5743 5743 5742 5742 5742 5743 5743 5743 5744 5744 5744 5746 5750 5751 5752 5752 5751 5751 5752 5753 5754 5755 5756
5759 5758 5756 5751 5751 5750 5750 5749 5749 5748 5747 5746 5745 5745 5743 5742 5742 5742 5741 5740 5740 5740 5739 5740 5740 5740 5740 5740 5740 5740 5741 5743 5746 5748 5748 5747 5745 5746 5748 5749 5750 5751 5753
5756 5755 5754 5752 5749 5747 5746 5745 5745 5744 5744 5743 5742 5741 5740 5739 5739 5739 5738 5738 5737 5737 5737 5737 5737 5736 5736 5736 5737 5737 5737 5739 5743 5744 5745 5743 5741 5742 5744 5745 5746 5748 5749
5753 5752 5751 5750 5748 5747 5745 5741 5741 5741 5740 5739 5738 5738 5737 5737 5736 5736 5736 5734 5734 5734 5734 5734 5733 5733 5733 5733 5733 5733 5734 5737 5739 5740 5739 5737 5736 5738 5739 5741 5742 5744 5745
5749 5749 5748 5746 5745 5744 5743 5739 5739 5738 5736 5737 5736 5735 5736 5738 5737 5736 5733 5731 5731 5731 5731 5730 5730 5730 5730 5730 5730 5730 5733 5736 5735 5735 5733 5731 5732 5733 5735 5736 5738 5740 5742
5745 5746 5745 5744 5742 5742 5740 5739 5738 5738 5736 5736 5736 5735 5736 5735 5734 5733 5729 5729 5728 5728 5728 5727 5727 5728 5730 5731 5729 5729 5732 5732 5731 5730 5727 5726 5727 5729 5730 5732 5734 5736 5739
5744 5742 5743 5742 5740 5739 5737 5736 5736 5735 5734 5734 5733 5733 5733 5733 5733 5732 5731 5729 5728 5727 5728 5726 5728 5728 5728 5727 5727 5727 5727 5727 5726 5724 5721 5721 5723 5725 5727 5728 5730 5732 5735
5741 5740 5740 5740 5739 5737 5735 5734 5733 5733 5732 5732 5732 5732 5732 5732 5731 5730 5729 5728 5727 5726 5725 5726 5725 5725 5725 5724 5723 5723 5722 5721 5720 5719 5716 5717 5718 5720 5722 5724 5726 5728 5731
5738 5737 5738 5737 5737 5735 5732 5731 5732 5731 5731 5731 5729 5730 5730 5730 5730 5729 5728 5725 5725 5724 5724 5723 5723 5722 5722 5720 5719 5719 5719 5717 5716 5716 5714 5712 5714 5716 5718 5720 5722 5725 5727
5736 5736 5736 5735 5734 5733 5732 5732 5731 5730 5728 5729 5728 5728 5728 5728 5727 5726 5726 5723 5723 5722 5722 5721 5721 5719 5718 5716 5715 5714 5714 5713 5712 5712 5712 5711 5710 5711 5713 5716 5718 5720 5722
5737 5736 5734 5733 5732 5731 5730 5729 5728 5727 5728 5728 5727 5727 5727 5726 5726 5725 5724 5723 5721 5720 5720 5719 5718 5717 5715 5713 5711 5710 5710 5709 5709 5709 5709 5709 5709 5709 5709 5710 5713 5715 5717
5736 5734 5732 5730 5728 5728 5727 5725 5726 5726 5725 5725 5725 5725 5725 5724 5724 5722 5722 5721 5719 5719 5718 5716 5716 5714 5712 5710 5708 5707 5707 5705 5706 5706 5707 5707 5707 5707 5706 5706 5708 5710 5712
5734 5732 5729 5728 5726 5724 5723 5722 5722 5723 5722 5723 5723 5722 5723 5722 5722 5721 5720 5719 5718 5717 5716 5715 5713 5712 5709 5706 5705 5704 5704 5703 5703 5704 5705 5704 5704 5704 5705 5704 5705 5705 5707
5731 5729 5728 5725 5723 5721 5720 5721 5719 5719 5720 5720 5720 5719 5719 5719 5719 5719 5718 5717 5716 5715 5713 5712 5709 5708 5707 5705 5704 5702 5701 5701 5701 5701 5702 5702 5701 5702 5702 5703 5704 5704 5703
5726 5725 5725 5722 5720 5719 5718 5717 5717 5716 5717 5717 5717 5716 5716 5717 5717 5717 5716 5716 5714 5713 5712 5711 5709 5706 5704 5704 5702 5699 5699 5700 5700 5699 5699 5700 5700 5699 5700 5700 5702 5702 5703
5724 5723 5723 5722 5719 5718 5716 5717 5716 5715 5716 5715 5714 5714 5714 5715 5715 5715 5715 5714 5713 5711 5710 5709 5707 5706 5704 5704 5703 5700 5697 5696 5697 5697 5697 5697 5698 5698 5698 5698 5698 5698 5699
5722 5722 5721 5719 5717 5716 5715 5715 5713 5713 5713 5713 5712 5712 5712 5712 5713 5713 5713 5713 5712 5711 5709 5708 5707 5705 5703 5703 5704 5702 5698 5695 5695 5695 5695 5696 5695 5695 5696 5695 5696 5696 5696
5722 5722 5720 5718 5717 5715 5713 5712 5712 5710 5709 5710 5712 5711 5711 5710 5710 5710 5711 5711 5711 5711 5709 5708 5707 5706 5703 5702 5702 5702 5703 5702 5697 5693 5694 5695 5694 5693 5694 5694 5693 5693 5692
5720 5718 5718 5716 5713 5712 5711 5710 5710 5709 5710 5710 5710 5710 5710 5709 5708 5708 5709 5710 5710 5709 5709 5707 5706 5706 5705 5703 5703 5702 5701 5700 5702 5698 5692 5692 5693 5692 5692 5692 5691 5690 5689
5716 5714 5713 5712 5710 5709 5708 5709 5709 5708 5708 5708 5708 5708 5708 5708 5708 5707 5707 5708 5708 5708 5707 5706 5705 5704 5704 5703 5703 5703 5701 5700 5699 5698 5694 5692 5690 5691 5691 5689 5689 5688 5687